Location: Mauna Kea VIS
(19.7591°N, 155.4561°W)
Time: 01:06:11
(UTC-10:00)

Daily predictions for brighter satellites

Satellite Brightness Start Highest point End
(mag) Time Altitude Azimuth Time Altitude Azimuth Time Altitude Azimuth
ATLAS 2AS CENTAUR R/B 4.4 01:41:07 10° N 01:47:38 29° ENE 01:48:17 29° ENE
Cosmos 2297 Rocket 4.3 02:20:32 20° N 02:20:32 20° N 02:22:14 10° N
Cosmos 2333 Rocket 4.3 02:12:55 10° N 02:14:49 21° N 02:14:49 21° N
CZ-3B DEB 4.0 02:19:39 77° WSW 02:20:50 83° NW 02:35:54 10° NNE
Lacrosse 4 Rocket 4.4 02:41:33 12° NNE 02:41:33 12° NNE 02:41:57 10° NNE
ATLAS 5 CENTAUR R/B 4.3 02:48:50 14° E 02:48:50 14° E 02:50:17 10° ENE
Cosmos 2237 Rocket 3.6 02:43:56 10° N 02:46:54 31° N 02:46:54 31° N
SL-16 R/B 4.4 02:45:28 10° NNE 02:49:39 21° ENE 02:53:49 10° ESE
SL-16 R/B 2.9 02:56:13 59° NNE 02:56:13 59° NNE 03:01:15 10° N
Cosmos 2263 Rocket 4.0 03:15:16 19° SE 03:17:16 23° ESE 03:21:31 10° NE
Resurs 1-4 Rocket 3.8 03:14:15 10° NNW 03:16:33 22° NNW 03:16:33 22° NNW
BREEZE-M DEB (TANK) 4.1 03:22:07 42° SE 03:23:00 45° ESE 03:35:38 10° NE
Cosmos 2346 Rocket 4.4 03:22:47 75° SSE 03:23:19 84° E 03:29:36 10° N
OAO 3 Rocket 4.1 03:24:33 45° N 03:24:33 45° N 03:28:35 10° NE
ATLAS 3B CENTAUR R/B 3.7 03:12:05 10° WNW 03:25:51 49° N 03:30:58 10° ENE
SEDSat Delta rocket 4.0 03:27:09 61° SSE 03:27:18 62° SSE 03:33:57 10° ENE
ADEOS II 3.4 03:24:07 10° NE 03:28:51 35° E 03:30:59 25° SE
Intelsat 5-2 Rocket 3.6 03:33:43 55° ENE 03:33:43 55° ENE 03:39:12 10° E
CZ-2D R/B 4.0 03:30:17 10° NNW 03:32:06 17° NW 03:32:06 17° NW
MOS 1-B 4.3 03:29:08 10° NNE 03:34:54 83° ESE 03:35:51 64° S
Cosmos 2034 Rocket 4.1 03:28:56 10° NNW 03:34:51 57° W 03:34:51 57° W
Cosmos 2242 Rocket 4.3 03:33:11 10° N 03:37:34 52° E 03:38:33 43° SE
ATLAS 2AS CENTAUR R/B 3.9 03:31:38 10° NW 03:35:34 28° WNW 03:35:34 28° WNW
GPS 2-17 Rocket1 3.2 03:42:39 63° E 03:42:39 63° E 03:46:19 10° E
Cosmos 1867 3.9 03:42:40 48° SSE 03:43:52 61° ESE 03:49:13 10° NNE
USA 215 3.5 03:42:05 10° NE 03:48:31 61° SE 03:51:16 35° SSW
PSLV R/B 3.9 03:45:50 10° NNE 03:49:39 69° E 03:49:39 69° E
Meteosat 1 Rocket2 4.0 03:49:59 33° NNW 03:50:21 34° NNW 03:53:47 10° NE
Cosmos 1933 Rocket 3.8 03:52:28 54° NW 03:52:28 54° NW 03:56:17 10° N
Cosmos 1315 Rocket 4.3 03:50:27 24° SE 03:52:13 35° E 03:55:55 10° NNE
MOS 1 Rocket 4.3 03:48:26 10° N 03:52:55 37° WNW 03:52:55 37° WNW
Cosmos 1862 Rocket 4.1 03:53:47 10° N 03:57:59 55° E 04:01:08 17° SSE
ISS -1.2 03:57:28 10° N 04:00:04 22° NE 04:02:40 10° E
GPS 2-15 Rocket1 3.2 04:06:35 52° SSW 04:06:51 52° SSW 04:11:24 10° ESE
Cosmos 332 Rocket 4.4 04:02:29 10° N 04:07:15 58° ENE 04:12:02 10° SSE
Atlas Centaur 2 3.5 04:13:41 25° SSW 04:18:35 52° SSE 04:26:37 10° ENE
Hubble Space Telescope 1.3 04:19:10 37° SSW 04:19:10 37° SSW 04:22:50 10° SE
FUSE 3.9 04:18:31 21° WNW 04:22:08 89° NNE 04:27:27 10° ESE
Okean O Rocket 1.7 04:19:09 10° N 04:23:22 53° WNW 04:25:03 32° SW
Cosmos 841 Rocket 4.4 04:19:52 10° N 04:24:58 50° ENE 04:30:01 10° SSE
Cosmos 1933 3.4 04:21:31 10° NNW 04:25:31 56° W 04:27:52 23° SSW
GP-B 3.1 04:22:03 10° N 04:26:24 60° W 04:29:11 22° SSW
ATLAS 5 CENTAUR R/B 2.8 04:30:24 24° W 04:31:48 28° WNW 04:35:52 10° N
Cosmos 468 Rocket 4.2 04:27:17 10° NNW 04:32:09 44° W 04:36:59 10° S
Meteor 2-3 Rocket 3.8 04:28:47 19° SSW 04:32:38 55° W 04:38:12 10° N
SL-16 R/B 2.8 04:28:41 10° NW 04:33:38 32° WSW 04:38:35 10° SSW
Cosmos 375 4.2 04:30:07 10° NNW 04:34:16 64° WSW 04:38:06 10° SSE
Cosmos 1400 Rocket 4.2 04:35:20 20° W 04:35:20 20° W 04:38:14 10° NNW
CZ-4B R/B 3.3 04:30:56 10° N 04:36:09 56° WNW 04:40:33 15° SSW
Cosmos 1869 Rocket 3.5 04:34:09 13° SSW 04:38:04 71° W 04:42:30 10° N
Meteor PRIRODA 3.6 04:34:30 10° NNE 04:38:08 84° ESE 04:41:39 11° S
Cosmos 1892 3.5 04:37:27 27° WSW 04:38:29 31° W 04:41:53 10° NNW
VEP-3 2.7 04:33:49 10° W 04:40:20 56° SSW 04:46:20 10° ESE
Cosmos 1634 Rocket 4.4 04:36:43 10° NNW 04:42:22 40° W 04:48:02 10° SSW
Skynet4D Del rocket 4.1 04:37:53 20° WSW 04:43:12 77° SSE 04:49:34 10° ENE
SWIFT 4.2 04:41:30 14° SSW 04:43:42 19° SSE 04:46:46 10° ESE
Cosmos 2279 Rocket 3.9 04:38:52 10° N 04:45:03 75° W 04:51:15 10° S
CZ-2C R/B 4.1 04:46:38 10° SSE 04:51:10 68° ENE 04:55:46 10° N
Feng Yun 1-1 Rocket 4.5 04:47:25 10° NNE 04:52:54 74° ESE 04:58:31 10° S
Meteor 1-31 Rocket 2.7 04:50:06 10° N 04:54:01 78° WNW 04:57:53 10° SSW
Okean-O 2.8 04:50:22 10° NNE 04:54:47 75° ESE 04:59:11 10° S
Cosmos 1763 Rocket 3.6 04:50:52 10° NNW 04:55:52 52° WSW 05:00:49 10° S
Cosmos 1782 4.5 04:54:33 10° NNE 04:58:16 37° E 05:02:00 10° SSE
IRAS Rocket 4.2 04:54:12 10° N 04:59:43 69° WNW 05:05:11 10° SSW
EO 1 Del DPAF 3.3 04:56:22 10° SSE 05:00:12 86° ENE 05:04:02 10° N
Cosmos 2263 Rocket 3.2 04:57:01 14° WSW 05:00:55 28° WNW 05:05:37 10° N
Cosmos 1943 4.2 04:56:11 10° N 05:01:39 52° ENE 05:07:07 10° SSE
Cosmos 1092 Rocket 4.0 04:59:44 10° S 05:06:01 83° W 05:12:21 10° N
ADEOS II 3.7 05:04:52 10° NNW 05:08:13 17° WNW 05:11:35 10° WSW
GPS 2-04 Rocket1 3.7 05:08:16 10° NW 05:12:25 54° NNE 05:16:38 10° ESE
Abrixas rocket 4.5 05:10:40 10° WNW 05:12:28 14° NW 05:14:16 10° N
Cosmos 371 Rocket 4.1 05:08:53 10° NW 05:12:57 28° W 05:17:01 10° SSW
Meteor 2-20 4.4 05:09:17 10° S 05:15:20 81° W 05:21:28 10° N
Cosmos 2221 Rocket 3.6 05:11:46 10° NNW 05:16:13 62° W 05:20:38 10° S
Okean 1-7 2.9 05:12:07 10° N 05:16:19 68° W 05:20:32 10° S
CZ-3 R/B 3.1 04:53:36 10° WNW 05:19:02 68° N 05:24:58 10° E
